Regional Weather Roundup
Issued by NWS Charleston, SC

Current Version | Previous Version | Text Only | Print | Product List | Glossary Off
Versions: 1 2 3 4 5 6 7 8 9 10 11 12 13 14 15 16 17 18 19 20 21 22 23 24 25 26 27 28 29 30 31 32 33 34 35 36 37 38 39 40 41 42 43 44 45 46 47 48 49 50
000 ASUS42 KCHS 210827 RWRCHS REGIONAL WEATHER ROUNDUP NATIONAL WEATHER SERVICE CHARLESTON SC 400 AM EDT SAT OCT 21 2017 NOTE: "FAIR" INDICATES FEW OR NO CLOUDS BELOW 12,000 FEET WITH NO SIGNIFICANT WEATHER AND/OR OBSTRUCTIONS TO VISIBILITY. NOT ALL STATIONS ARE QUALITY CONTROLLED. USE DATA WITH CAUTION... ESPECIALLY DEWPOINT OBSERVATIONS. SCZ027-030-031-034>040-042>050-210900- ...SOUTHEAST SOUTH CAROLINA... CITY SKY/WX TMP DP RH WIND PRES REMARKS N CHARLESTON PTCLDY 55 55 100 CALM 30.21F WATERFRONT PRK N/A 66 64 93 VRB2 30.06F JOHNS ISLAND FAIR 57 55 94 CALM 30.21S PINOPOLIS N/A N/A N/A N/A VRB2 30.13F MONCKS CORNER FAIR 52 52 100 CALM 30.22S SUMMERVILLE FAIR 50 50 100 CALM 30.23S BEAUFORT MCAS CLEAR 60 59 96 MISG 30.20F BEAUFORT ARPT FAIR 61 59 94 NE3 30.20S HILTON HEAD IS CLEAR 61 59 94 CALM 30.20F WALTERBORO SUNNY 48 46 93 CALM 30.22F ALLENDALE N/A 50 50 100 CALM N/A ...SOUTHERN MIDLANDS AND PEE DEE... CITY SKY/WX TMP DP RH WIND PRES REMARKS GEORGETOWN FAIR 50 50 100 CALM 30.23F KINGSTREE FAIR 48 46 93 CALM 30.23S ORANGEBURG CLEAR 51 49 92 CALM 30.23F BARNWELL N/A 50 48 93 CALM 30.22F AIKEN FAIR 46 45 93 CALM 30.26F MANNING FOG 50 46 87 MISG 30.23S VSB<1/4 COLUMBIA PTCLDY 49 47 93 CALM 30.23S SUMTER PTCLDY 50 47 89 NE5 30.20F FLORENCE CLEAR 51 50 96 CALM 30.23F MYRTLE BEACH CLEAR 56 54 93 N3 30.24F N MYRTLE BEACH CLEAR 54 53 97 CALM 30.23S FOG $$ GAZ063-065-086>088-099>101-113>116-118-119-134>141-150-210900- ...SOUTHEAST GEORGIA... CITY SKY/WX TMP DP RH WIND PRES REMARKS SAVANNAH ARPT CLEAR 58 57 97 CALM 30.20F HUNTER AAF CLEAR 61 58 92 CALM 30.17F FORT STEWART CLEAR 59 57 93 CALM 30.18S STATESBORO MOCLDY 52 52 100 CALM 30.21S SYLVANIA FOG 51 51 100 CALM 30.22S VSB 1/2 CLAXTON FOG 54 53 98 CALM 30.21S VSB 1/2 ...CSRA...CENTRAL AND FAR SOUTHEAST GEORGIA... CITY SKY/WX TMP DP RH WIND PRES REMARKS THOMSON CLOUDY 45 44 94 CALM 30.28S AUGUSTA-BUSH PTCLDY 49 47 93 CALM 30.22F AUGUSTA-DANIEL CLEAR 60 48 64 CALM 30.23F SWAINSBORO FAIR 54 54 100 CALM 30.22S VIDALIA CLEAR 55 55 100 CALM 30.21S EASTMAN FAIR 51 51 100 CALM 30.23F HAZLEHURST FAIR 63 59 88 CALM 30.19S ALMA CLEAR 61 59 93 CALM 30.18F WAYCROSS CLEAR 63 60 90 NE3 30.17F JESUP FAIR 63 59 88 CALM 30.19 BAXLEY FAIR 55 55 100 CALM 30.19S BRUNSWICK CLEAR 61 59 94 CALM 30.17F SAINT SIMONS CLEAR 72 68 87 NE6 30.16F $$ SCZ027-028-034-036>038-045-046-048>050-GAZ119-141-210900- ...LAKE AND SUPPLEMENTAL COASTAL OBSERVATIONS... STATION/POSITION TIME TEMP WIND PRES WAVE SWELL AIR SEA DIR/SP/G HT/PER HT/PER/DIR (UTC) (F) (DEG/KT/KT) (MB) (FT/S) (FT/S/D) WINYAH BAY 0745 55 330/ 2 1023.0F LAKE MURRAY 0820 56 CALM 1023.0S ACE BASIN NERRS 0745 60 CALM 1023.0S FORT PULASKI 0800 70 74 40/ 5/ 6 1022.6 SAPELO ISLAND NOT AVBL $$ ANZ835-935-AMZ111-154-330-350-352-354-370-450-454-472-210900- ...C-MAN AND BUOY OBSERVATIONS... STATION/POSITION TIME TEMP WIND PRES WAVE SWELL AIR SEA DIR/SP/G HT/PER HT/PER/DIR (UTC) (F) (DEG/KT/KT) (MB) (FT/S) (FT/S/D) BUOY 41004 0810 75 80 50/ 8/ 12 1021.9 BUOY 41008 0750 76 77 70/ 14/ 16 1021.2F 4/ 9 3/130/ 9 FOLLY BEACH CMAN 0800 66 330/ 2/ 3 1023.4F CAPERS NEARSHORE 0808 70 73 100/ 6/ 8 1022.6F FRIPP NEARSHORE 0808 74 90/ 6/ 8 N/A STATION/POSITION TIME TEMP WIND PRES WAVE SWELL AIR SEA DIR/SP/G HT/PER HT/PER/DIR (UTC) (F) (DEG/KT/KT) (MB) (FT/S) (FT/S/D) 5E ST. MARYS GA 0800 77 N/A 4/ 5 FRYING PAN BUOY 0810 73 76 50/ 4/ 6 1023.1 BUOY 41025 0750 74 81 30/ 8/ 10 1023.6F 3/ 9 2/120/ 9 CAPE LOOKOUT NC 0800 66 360/ 6/ 7 1023.7F BUOY 41002 0750 76 80 50/ 12/ 16 1021.8F 4/ 8 3/ 70/ 8 BUOY 41010 NOT AVBL ST AUGUSTINE FL 0800 78 77 90/ 15/ 18 1020.0F $$

USA.gov is the U.S. government's official web portal to all federal, state and local government web resources and services.